Погода в Сене-Лоране-дю-Варе

Франция     43°40′13″N   7°11′27″E
темп.,
°C
ветер,
м/с
пор.,
м/с
влажн.,
%
обл.,
%
осадки,
мм/ч
давл.,
гПа
погр.,
м
23 мая, пн
пн2323:00+17с1186100 0.0 101218
02:00+17всв229399 0.0 101250
05:00+16с11925 0.0 101025
08:00+19ссз00805 0.0 1010132
11:00+22ююв3167100 0.0 1010462
14:00+23ююв3254100 0.0 1009475
17:00+23ююв324938 0.0 1007423
20:00+21юв11608 0.0 1006189
24 мая, вт
вт2423:00+18ссв116884 0.0 100727
02:00+17ссз225699 0.0 100640
05:00+17ссз2254100 0.0 100626
08:00+19вюв1152100 0.0 1007237
11:00+21ююв325729 0.0 1007747
14:00+23юв3259100 0.0 1007811
17:00+22ююв32654 0.1 1007643
20:00+20юв117810 1.0 1007199
25 мая, ср
ср2523:00+18с228386 0.4 100936
02:00+18ссз237376 0.5 100972
05:00+17ссв1175100 0.0 100928
08:00+19с2362100 0.1 1011117
11:00+23вюв3455100 0.0 1012854
14:00+23вюв446513 0.0 1013748
17:00+24юв3359100 0.0 1013705
20:00+21юв127616 0.1 1014235
26 мая, чт
чт2623:00+19ссз2279100 0.1 1017159
02:00+19с2382100 0.8 1018105
05:00+18с34706 0.0 101768
08:00+19ссз226597 0.0 101951
11:00+24юв3349100 0.0 1019777
14:00+27в1339100 0.0 10191253
17:00+26юв1247100 0.0 1017929
20:00+23ю0157100 0.0 1018148
27 мая, пт
пт2723:00+21ссз2354100 0.0 101858
02:00+21ссз4544100 0.0 101797
05:00+19ссз3361100 0.3 101844
08:00+21юв1250100 0.3 1018306
11:00+25з114496 0.0 1018508
14:00+27юз123379 0.0 10171230
17:00+28юз2231100 0.0 10151799
20:00+26зюз114091 0.0 1013103